Weather History for Bangkok (Don Mueang), Thailand

Change the Weather History Date:

Saturday, May 25, 2013

  Actual Average Record
Temperature  
Mean Temperature 87 °F -  
Max Temperature 94 °F 91 °F 97 °F (2014)
Min Temperature 80 °F 77 °F 75 °F (1999)
Cooling Degree Days 22    
Growing Degree Days 37 (Base 50)    
Moisture  
Dew Point 76 °F    
Average Humidity 73    
Maximum Humidity 94    
Minimum Humidity 42    
Precipitation  
Precipitation 0.01 in 0.18 in - ()
Sea Level Pressure  
Sea Level Pressure 29.74 in    
Wind  
Wind Speed 4 mph ()    
Max Wind Speed 14 mph    
Max Gust Speed -    
Visibility 6.2 miles    
Events Rain    
Averages and records for this station are not official NWS values.
T = Trace of Precipitation, MM = Missing Value Source: Averaged Metar Reports

Daily Weather History Graph

Daily Weather History Graph

Search for Another Location

Airport:

Trip Planner

Search our weather history database for the weather conditions in past years. The results will help you decide how hot, cold, wet, or windy it might be!

Date:

Astronomy

May. 25, 2013 Rise Set
Actual Time 5:49 AM ICT 6:40 PM ICT
Civil Twilight 5:25 AM ICT 7:03 PM ICT
Nautical Twilight 4:58 AM ICT 7:30 PM ICT
Astronomical Twilight 4:31 AM ICT 7:58 PM ICT
Moon 6:56 PM ICT (5/25) 5:41 AM ICT (5/25)
Length of Visible Light 13h 37m
Length of Day
12h 51m
Full, 100% of the Moon is Illuminated
May 25
Full
Jun 1
Last Quarter
Jun 8
New
Jun 17
First Quarter
Jun 23
Full

Hourly Weather History & Observations

Time (ICT) Temp. Heat Index Dew Point Humidity Pressure Visibility Wind Dir Wind Speed Gust Speed Precip Events Conditions
12:00 AM 80.6 °F 87.1 °F 77.0 °F 89% 29.77 in 6.2 mi Calm Calm - N/A Rain Light Rain
12:30 AM 80.6 °F 87.1 °F 77.0 °F 89% 29.77 in 6.2 mi Calm Calm - N/A   Mostly Cloudy
1:00 AM 81 °F - 78 °F 88% 29.78 in 6 mi Calm Calm - -   Partly Cloudy
1:00 AM 80.6 °F 88.1 °F 78.8 °F 94% 29.77 in 6.2 mi Calm Calm - N/A   Mostly Cloudy
1:30 AM 80.6 °F 88.1 °F 78.8 °F 94% 29.77 in 6.2 mi Calm Calm - N/A   Mostly Cloudy
2:00 AM 80.6 °F 88.1 °F 78.8 °F 94% 29.74 in 6.2 mi Calm Calm - N/A   Mostly Cloudy
2:30 AM 82.4 °F 92.4 °F 78.8 °F 89% 29.74 in 6.2 mi Calm Calm - N/A   Mostly Cloudy
3:00 AM 82.4 °F 92.4 °F 78.8 °F 89% 29.74 in 6.2 mi East 3.5 mph - N/A   Mostly Cloudy
3:30 AM 82.4 °F 92.4 °F 78.8 °F 89% 29.74 in 6.2 mi East 3.5 mph - N/A   Mostly Cloudy
4:00 AM 80.6 °F 88.1 °F 78.8 °F 94% 29.74 in 6.2 mi NNE 3.5 mph - N/A   Mostly Cloudy
4:30 AM 80.6 °F 88.1 °F 78.8 °F 94% 29.71 in 6.2 mi Calm Calm - N/A   Mostly Cloudy
5:00 AM 80.6 °F 88.1 °F 78.8 °F 94% 29.71 in 6.2 mi ENE 3.5 mph - N/A   Mostly Cloudy
5:30 AM 80.6 °F 88.1 °F 78.8 °F 94% 29.71 in 6.2 mi ENE 3.5 mph - N/A   Mostly Cloudy
6:00 AM 80.6 °F 88.1 °F 78.8 °F 94% 29.74 in 6.2 mi ENE 4.6 mph - N/A   Mostly Cloudy
6:30 AM 80.6 °F 88.1 °F 78.8 °F 94% 29.74 in 6.2 mi East 3.5 mph - N/A   Mostly Cloudy
7:00 AM 81 °F - 78 °F 89% 29.77 in 6 mi ESE 3.5 mph - -   Scattered Clouds
7:00 AM 80.6 °F 88.1 °F 78.8 °F 94% 29.74 in 6.2 mi ESE 3.5 mph - N/A   Mostly Cloudy
7:30 AM 80.6 °F 88.1 °F 78.8 °F 94% 29.74 in 6.2 mi East 3.5 mph - N/A   Mostly Cloudy
8:00 AM 82.4 °F 92.4 °F 78.8 °F 89% 29.77 in 6.2 mi SE 3.5 mph - N/A   Mostly Cloudy
8:30 AM 84.2 °F 94.1 °F 77.0 °F 79% 29.77 in 6.2 mi East 3.5 mph - N/A   Mostly Cloudy
9:00 AM 84.2 °F 94.1 °F 77.0 °F 79% 29.77 in 6.2 mi West 2.3 mph - N/A   Mostly Cloudy
9:30 AM 87.8 °F 99.7 °F 77.0 °F 70% 29.80 in 6.2 mi SSW 6.9 mph - N/A   Mostly Cloudy
10:00 AM 89.6 °F 99.8 °F 75.2 °F 62% 29.80 in 6.2 mi South 4.6 mph - N/A   Mostly Cloudy
10:30 AM 89.6 °F 98.2 °F 73.4 °F 59% 29.80 in 6.2 mi West 6.9 mph - N/A   Mostly Cloudy
11:00 AM 89.6 °F 98.2 °F 73.4 °F 59% 29.77 in 6.2 mi West 9.2 mph - N/A   Mostly Cloudy
11:30 AM 91.4 °F 100.1 °F 73.4 °F 55% 29.77 in 6.2 mi West 8.1 mph - N/A   Mostly Cloudy
12:00 PM 93.2 °F 100.5 °F 71.6 °F 49% 29.77 in 6.2 mi SSW 5.8 mph - N/A   Mostly Cloudy
12:30 PM 93.2 °F 100.5 °F 71.6 °F 49% 29.77 in 6.2 mi SSW 9.2 mph - N/A   Mostly Cloudy
1:00 PM 94 °F - 73 °F 42% 29.77 in 6 mi WSW 11.5 mph - -   Scattered Clouds
1:00 PM 93.2 °F 102.4 °F 73.4 °F 52% 29.74 in 6.2 mi WSW 11.5 mph - N/A   Mostly Cloudy
1:30 PM 95.0 °F 104.5 °F 73.4 °F 49% 29.74 in 6.2 mi WSW 9.2 mph - N/A   Mostly Cloudy
2:00 PM 93.2 °F 100.5 °F 71.6 °F 49% 29.71 in 6.2 mi SSW 9.2 mph - N/A   Mostly Cloudy
2:30 PM 93.2 °F 100.5 °F 71.6 °F 49% 29.71 in 6.2 mi SSW 11.5 mph - N/A   Mostly Cloudy
3:00 PM 93.2 °F 102.4 °F 73.4 °F 52% 29.68 in 6.2 mi SSW 13.8 mph - N/A   Mostly Cloudy
3:30 PM 91.4 °F 100.1 °F 73.4 °F 55% 29.71 in 6.2 mi SSW 13.8 mph - N/A   Mostly Cloudy
4:00 PM 91.4 °F 102.5 °F 75.2 °F 59% 29.68 in 6.2 mi SSW 8.1 mph - N/A   Mostly Cloudy
4:30 PM 91.4 °F 102.5 °F 75.2 °F 59% 29.68 in 6.2 mi WSW 13.8 mph - N/A   Mostly Cloudy
5:00 PM 91.4 °F 100.1 °F 73.4 °F 55% 29.68 in 6.2 mi SSW 9.2 mph - N/A   Mostly Cloudy
5:30 PM 89.6 °F 98.2 °F 73.4 °F 59% 29.68 in 6.2 mi WNW 9.2 mph - N/A   Mostly Cloudy
6:00 PM 89.6 °F 99.8 °F 75.2 °F 62% 29.71 in 6.2 mi WNW 6.9 mph - N/A   Mostly Cloudy
6:30 PM 87.8 °F 95.6 °F 73.4 °F 62% 29.71 in 6.2 mi West 8.1 mph - N/A   Mostly Cloudy
7:00 PM 86 °F - 73 °F 56% 29.74 in 6 mi WNW 4.6 mph - -   Scattered Clouds
7:00 PM 86.0 °F 93.4 °F 73.4 °F 66% 29.71 in 6.2 mi WNW 4.6 mph - N/A   Mostly Cloudy
7:30 PM 86.0 °F 93.4 °F 73.4 °F 66% 29.71 in 6.2 mi SSW 5.8 mph - N/A   Mostly Cloudy
8:00 PM 86.0 °F 93.4 °F 73.4 °F 66% 29.74 in 6.2 mi SSW 5.8 mph - N/A   Mostly Cloudy
8:30 PM 86.0 °F 95.1 °F 75.2 °F 70% 29.74 in 6.2 mi SSW 6.9 mph - N/A   Mostly Cloudy
9:00 PM 86.0 °F 95.1 °F 75.2 °F 70% 29.74 in 6.2 mi SW 6.9 mph - N/A   Mostly Cloudy
9:30 PM 86.0 °F 95.1 °F 75.2 °F 70% 29.74 in 6.2 mi SSW 9.2 mph - N/A   Mostly Cloudy
10:00 PM 86.0 °F 96.9 °F 77.0 °F 74% 29.77 in 6.2 mi SSW 9.2 mph - N/A   Mostly Cloudy
10:30 PM 86.0 °F 96.9 °F 77.0 °F 74% 29.77 in 6.2 mi SW 5.8 mph - N/A   Mostly Cloudy
11:00 PM 86.0 °F 96.9 °F 77.0 °F 74% 29.77 in 6.2 mi SW 8.1 mph - N/A   Mostly Cloudy
11:30 PM 86.0 °F 96.9 °F 77.0 °F 74% 29.77 in 6.2 mi SW 4.6 mph - N/A   Mostly Cloudy